HG8GL Weather Reports


time (UTC)temp
F
wind
direction
speed
knots
gust
knots
rain 1hr
in
rain 24hr
in
rain mn
in
humidity
%
barometer
mb
20260507085511 69 206 0.0 0.0 0.00 0.00 0.00 67 1014.1
20260507085008 69 210 0.0 0.0 0.00 0.00 0.00 69 1015.0
20260507084009 67 161 0.0 0.0 0.00 0.00 0.00 73 1014.9
20260507083510 67 204 0.0 0.0 0.00 0.00 0.00 73 1014.0
20260507083010 67 199 0.0 0.0 0.00 0.00 0.00 73 1014.0
20260507082010 66 206 0.0 0.0 0.00 0.00 0.00 73 1015.0
20260507081508 66 171 0.0 0.0 0.00 0.00 0.00 73 1015.0
20260507081009 66 177 0.0 0.0 0.00 0.00 0.00 73 1014.8
20260507080008 66 182 0.0 0.0 0.00 0.00 0.00 72 1014.0
20260507075012 67 179 0.0 0.0 0.00 0.00 0.00 73 1014.0
20260507074511 67 224 0.0 0.0 0.00 0.00 0.00 73 1014.0
20260507074010 67 199 0.0 0.0 0.00 0.00 0.00 76 1014.0
20260507073512 67 202 0.0 0.0 0.00 0.00 0.00 76 1014.0
20260507073010 66 183 0.0 0.0 0.00 0.00 0.00 77 1014.0
20260507072509 66 190 0.0 0.0 0.00 0.00 0.00 78 1014.0
20260507071510 66 166 0.0 0.0 0.00 0.00 0.00 82 1014.0
20260507071008 65 171 0.0 0.0 0.00 0.00 0.00 83 1014.0
20260507070011 65 182 0.0 0.0 0.00 0.00 0.00 86 1014.0
20260507065008 64 178 0.0 0.0 0.00 0.00 0.00 88 1014.0
20260507064509 63 161 0.0 0.0 0.00 0.00 0.00 88 1014.0
20260507064010 63 163 0.0 0.0 0.00 0.00 0.00 88 1014.0
20260507063511 63 178 0.0 0.0 0.00 0.00 0.00 89 1014.0
20260507063009 62 180 0.0 0.0 0.00 0.00 0.00 89 1014.0
20260507062510 62 161 0.0 0.0 0.00 0.00 0.00 89 1014.0
20260507062009 62 183 0.0 0.0 0.00 0.00 0.00 89 1014.0
20260507061510 62 180 0.0 0.0 0.00 0.00 0.00 89 1014.0
20260507061011 62 158 0.0 0.0 0.00 0.00 0.00 89 1014.0
20260507060010 62 180 0.0 0.0 0.00 0.00 0.00 88 1014.0
20260507055509 61 158 0.0 0.0 0.00 0.00 0.00 88 1013.9
20260507055008 61 158 0.0 0.0 0.00 0.00 0.00 88 1013.0
20260507054509 61 161 0.0 0.0 0.00 0.00 0.00 88 1013.0
20260507054009 61 154 0.0 0.0 0.00 0.00 0.00 88 1013.0
20260507053510 61 159 0.0 0.0 0.00 0.00 0.00 87 1013.0
20260507053010 61 167 0.0 0.0 0.00 0.00 0.00 87 1013.0
20260507052507 61 183 0.0 0.0 0.00 0.00 0.00 86 1013.0
20260507051508 61 172 0.0 0.0 0.00 0.00 0.00 86 1013.0
20260507051009 61 158 0.0 0.0 0.00 0.00 0.00 86 1013.0
20260507045508 61 158 0.0 0.0 0.00 0.00 0.00 86 1013.0
20260507045010 61 157 0.0 0.0 0.00 0.00 0.00 86 1013.0
20260507044508 61 158 0.0 0.0 0.00 0.00 0.00 86 1013.0
20260507044009 61 153 0.0 0.0 0.00 0.00 0.00 85 1013.0
20260507043508 61 158 0.0 0.0 0.00 0.00 0.00 85 1013.0
20260507043010 61 157 0.0 0.0 0.00 0.00 0.00 85 1013.0
20260507042508 61 151 0.0 0.0 0.00 0.00 0.00 85 1013.0
20260507042008 61 150 0.0 0.0 0.00 0.00 0.00 85 1013.0
20260507041508 61 150 0.0 0.0 0.00 0.00 0.00 85 1013.0
20260507041008 61 155 0.0 0.0 0.00 0.00 0.00 84 1012.9
20260507035507 61 158 0.0 0.0 0.00 0.00 0.00 83 1012.0
20260507035007 61 158 0.0 0.0 0.00 0.00 0.00 83 1012.0
20260507034507 61 155 0.0 0.0 0.00 0.00 0.00 83 1012.0
20260507033508 61 158 0.0 0.0 0.00 0.00 0.00 83 1012.0
20260507032507 61 158 0.0 0.0 0.00 0.00 0.00 82 1012.0
20260507032010 61 202 0.0 0.0 0.00 0.00 0.00 82 1012.0
20260507031510 61 202 0.0 0.0 0.00 0.00 0.00 82 1012.0
20260507031009 61 218 0.0 0.0 0.00 0.00 0.00 82 1012.0
20260507030008 62 202 0.0 0.0 0.00 0.00 0.00 82 1012.0
20260507025508 62 205 0.0 0.0 0.00 0.00 0.00 82 1012.0
20260507025008 62 248 0.0 0.0 0.00 0.00 0.00 83 1012.0
20260507024509 62 241 0.0 0.0 0.00 0.00 0.00 83 1012.0
20260507023008 62 158 0.0 0.0 0.00 0.00 0.00 83 1012.0
20260507022509 62 181 0.0 0.0 0.00 0.00 0.00 83 1012.0
20260507022008 62 222 0.0 0.0 0.00 0.00 0.00 83 1012.0
20260507021509 62 222 0.0 0.0 0.00 0.00 0.00 83 1012.0
20260507021010 62 161 0.0 0.0 0.00 0.00 0.00 83 1012.0
20260507020009 62 202 0.0 0.0 0.00 0.00 0.00 83 1012.0
20260507015508 62 202 0.0 0.0 0.00 0.00 0.00 83 1012.0
20260507014009 62 237 0.0 0.0 0.00 0.00 0.00 83 1012.0
20260507013010 63 252 0.0 0.0 0.00 0.00 0.00 82 1012.0
20260507012508 63 248 0.0 0.0 0.00 0.00 0.00 82 1012.0
20260507012009 63 266 0.0 0.0 0.00 0.00 0.00 81 1012.0
20260507011508 63 254 0.0 0.0 0.00 0.00 0.00 80 1012.0
20260507005509 63 292 0.0 0.0 0.00 0.00 0.00 80 1011.0
20260507005010 63 288 0.0 0.0 0.00 0.00 0.00 80 1011.0
20260507004509 63 272 0.0 0.0 0.00 0.00 0.00 80 1011.0
20260507004009 64 274 0.0 0.0 0.00 0.00 0.00 79 1011.1
20260507003512 64 304 0.0 0.0 0.00 0.00 0.00 78 1012.0
20260507003010 64 299 0.0 0.0 0.00 0.00 0.00 75 1012.0
20260507002512 64 311 0.0 0.0 0.00 0.00 0.00 75 1012.0
20260507002008 64 288 0.0 0.0 0.00 0.00 0.00 75 1012.0
20260507001509 64 291 0.0 0.0 0.00 0.00 0.00 74 1012.0
20260507001010 65 274 0.0 0.0 0.00 0.00 0.00 73 1011.9
20260507000010 65 284 0.0 0.0 0.00 0.00 0.00 72 1011.0
20260506235508 65 296 0.0 0.0 0.00 0.00 0.00 71 1011.1
20260506235010 65 284 0.0 0.0 0.00 0.00 0.00 71 1012.0
20260506234507 65 281 0.0 0.0 0.00 0.00 0.00 71 1012.0
20260506234009 65 259 0.0 0.0 0.00 0.00 0.00 71 1012.0
20260506233009 65 272 0.0 0.0 0.00 0.00 0.00 71 1012.0
20260506232510 65 273 0.0 0.0 0.00 0.00 0.00 71 1012.0
20260506232007 65 281 0.0 0.0 0.00 0.00 0.00 71 1012.0
20260506231508 65 269 0.0 0.0 0.00 0.00 0.00 70 1012.0
20260506231008 65 252 0.0 0.0 0.00 0.00 0.00 70 1012.0
20260506230009 65 259 0.0 0.0 0.00 0.00 0.00 69 1012.0
20260506225510 65 266 0.0 0.0 0.00 0.00 0.00 69 1012.0
20260506225010 65 254 0.0 0.0 0.00 0.00 0.00 68 1012.0
20260506224509 65 271 0.0 0.0 0.00 0.00 0.00 68 1012.0
20260506224009 65 263 0.0 0.0 0.00 0.00 0.00 67 1012.0
20260506223509 65 259 0.0 0.0 0.00 0.00 0.00 67 1012.0
20260506222513 65 270 0.0 0.0 0.00 0.00 0.00 65 1012.0
20260506222009 65 250 0.0 0.0 0.00 0.00 0.00 63 1012.0
20260506221507 65 271 0.0 0.0 0.00 0.00 0.00 63 1012.0
20260506221010 65 249 0.0 0.0 0.00 0.00 0.00 64 1012.0
20260506220010 66 288 0.0 0.0 0.00 0.00 0.00 63 1012.0
20260506215507 66 262 0.0 0.0 0.00 0.00 0.00 62 1011.8
20260506214010 66 268 0.0 0.0 0.00 0.00 0.00 60 1011.0
20260506213510 66 281 0.0 0.0 0.00 0.00 0.00 59 1011.0
20260506213009 66 281 0.0 0.0 0.00 0.00 0.00 59 1011.0
20260506212507 66 277 0.0 0.0 0.00 0.00 0.00 58 1011.0
20260506212010 67 277 0.0 0.0 0.00 0.00 0.00 57 1011.0
20260506211008 67 281 0.0 0.0 0.00 0.00 0.00 57 1011.0
20260506210007 67 269 0.0 0.0 0.00 0.00 0.00 56 1011.0
20260506205507 67 274 0.0 0.0 0.00 0.00 0.00 55 1010.9
20260506204508 67 270 0.0 0.0 0.00 0.00 0.00 56 1010.0
20260506204010 67 266 0.0 0.0 0.00 0.00 0.00 56 1010.2
20260506203008 67 293 0.0 0.0 0.00 0.00 0.00 54 1011.0
20260506202008 66 238 0.0 0.0 0.00 0.00 0.00 55 1011.0
20260506201509 66 260 0.0 0.0 0.00 0.00 0.00 56 1011.0
20260506201009 66 238 0.0 0.0 0.00 0.00 0.00 58 1010.8
20260506200008 64 248 0.0 0.0 0.00 0.00 0.00 53 1010.0
20260506195508 64 165 0.0 0.0 0.00 0.00 0.00 52 1010.2
20260506195009 64 158 0.0 0.0 0.00 0.00 0.00 52 1011.0
20260506194508 64 158 0.0 0.0 0.00 0.00 0.00 51 1011.0
20260506194008 64 158 0.0 0.0 0.00 0.00 0.00 51 1010.8
20260506193509 64 135 0.0 0.0 0.00 0.00 0.00 50 1010.0
20260506193009 65 135 0.0 0.0 0.00 0.00 0.00 50 1010.0
20260506192508 65 135 0.0 0.0 0.00 0.00 0.00 49 1010.0
20260506192008 65 135 0.0 0.0 0.00 0.00 0.00 49 1010.0
20260506191508 65 158 0.0 0.0 0.00 0.00 0.00 49 1010.0
20260506190008 66 158 0.0 0.0 0.00 0.00 0.00 48 1011.0
20260506185508 66 131 0.0 0.0 0.00 0.00 0.00 48 1010.8
20260506185009 66 143 0.0 0.0 0.00 0.00 0.00 47 1010.0
20260506184008 67 22 0.0 0.0 0.00 0.00 0.00 45 1010.0
20260506183008 68 22 0.0 0.0 0.00 0.00 0.00 44 1010.0
20260506182509 68 22 0.0 0.0 0.00 0.00 0.00 43 1010.0
20260506182008 69 22 0.0 0.0 0.00 0.00 0.00 43 1010.0
20260506181507 69 22 0.0 0.0 0.00 0.00 0.00 42 1010.0
20260506180008 70 22 0.0 0.0 0.00 0.00 0.00 40 1010.0
20260506175508 71 22 0.0 0.0 0.00 0.00 0.00 40 1010.0
20260506175008 72 22 0.0 0.0 0.00 0.00 0.00 39 1010.0
20260506174507 72 22 0.0 0.0 0.00 0.00 0.00 38 1010.0
20260506174008 73 22 0.0 0.0 0.00 0.00 0.00 38 1010.0
20260506173509 73 22 0.0 0.0 0.00 0.00 0.00 38 1010.0
20260506173008 74 22 0.0 0.0 0.00 0.00 0.00 36 1010.0
20260506172508 74 19 0.0 0.0 0.00 0.00 0.00 36 1010.0
20260506172008 75 248 0.0 0.0 0.00 0.00 0.00 36 1010.0
20260506171508 75 248 0.0 0.0 0.00 0.00 0.00 35 1010.0
20260506171008 76 248 0.0 0.0 0.00 0.00 0.00 35 1010.0
20260506170008 76 225 0.0 0.0 0.00 0.00 0.00 34 1010.0
20260506165508 76 227 0.0 0.0 0.00 0.00 0.00 34 1010.0
20260506165008 76 247 0.0 0.0 0.00 0.00 0.00 34 1010.0
20260506164510 77 214 0.0 0.0 0.00 0.00 0.00 34 1010.0
20260506164008 77 234 0.0 0.0 0.00 0.00 0.00 34 1010.0
20260506163510 77 238 0.0 0.0 0.00 0.00 0.00 34 1010.0
20260506162514 77 207 0.0 0.0 0.00 0.00 0.00 34 1010.0
20260506162009 77 221 0.0 0.0 0.00 0.00 0.00 33 1010.0
20260506161510 77 172 0.0 0.0 0.00 0.00 0.00 33 1010.0
20260506161011 78 186 0.0 0.0 0.00 0.00 0.00 33 1010.0
20260506160009 78 184 0.0 0.0 0.00 0.00 0.00 33 1010.0
20260506155009 78 192 0.0 0.0 0.00 0.00 0.00 33 1010.0
20260506154508 78 210 0.0 0.0 0.00 0.00 0.00 33 1010.0
20260506154010 78 233 0.0 0.0 0.00 0.00 0.00 33 1010.0
20260506153008 78 178 0.0 0.0 0.00 0.00 0.00 33 1010.0
20260506152508 79 158 0.0 0.0 0.00 0.00 0.00 33 1009.9
20260506152008 79 196 0.0 0.0 0.00 0.00 0.00 33 1009.0
20260506151507 79 198 0.0 0.0 0.00 0.00 0.00 33 1009.0
20260506151009 79 226 0.0 0.0 0.00 0.00 0.00 32 1009.1
20260506150011 80 240 0.0 0.0 0.00 0.00 0.00 32 1010.0
20260506145510 80 219 0.0 0.0 0.00 0.00 0.00 32 1010.0
20260506145010 80 170 0.0 0.0 0.00 0.00 0.00 32 1010.0
20260506144012 80 185 0.0 0.0 0.00 0.00 0.00 32 1010.0
20260506143510 81 171 0.0 0.0 0.00 0.00 0.00 32 1010.0
20260506143009 81 223 0.0 0.0 0.00 0.00 0.00 32 1010.0
20260506142513 81 178 0.0 0.0 0.00 0.00 0.00 32 1010.0
20260506142011 81 210 0.0 0.0 0.00 0.00 0.00 32 1010.0
20260506141511 81 188 0.0 0.0 0.00 0.00 0.00 32 1010.0
20260506141010 81 236 0.0 0.0 0.00 0.00 0.00 32 1010.0
20260506135508 81 208 0.0 0.0 0.00 0.00 0.00 33 1010.0
20260506135011 81 185 0.0 0.0 0.00 0.00 0.00 33 1010.0
20260506134510 81 183 0.0 0.0 0.00 0.00 0.00 33 1010.0
20260506133510 81 187 0.0 0.0 0.00 0.00 0.00 33 1010.0
20260506133013 80 170 0.0 0.0 0.00 0.00 0.00 33 1010.0
20260506132507 80 215 0.0 0.0 0.00 0.00 0.00 33 1010.0
20260506132008 80 163 0.0 0.0 0.00 0.00 0.00 33 1010.0
20260506131010 80 221 0.0 0.0 0.00 0.00 0.00 33 1010.2
20260506130008 79 206 0.0 0.0 0.00 0.00 0.00 34 1011.0
20260506125509 80 231 0.0 0.0 0.00 0.00 0.00 33 1011.2
20260506125013 80 195 0.0 0.0 0.00 0.00 0.00 34 1012.0
20260506124509 80 203 0.0 0.0 0.00 0.00 0.00 34 1012.0
20260506124009 79 158 0.0 0.0 0.00 0.00 0.00 34 1012.0
20260506123512 79 235 0.0 0.0 0.00 0.00 0.00 34 1012.0
20260506123011 79 171 0.0 0.0 0.00 0.00 0.00 34 1012.0
20260506122510 79 177 0.0 0.0 0.00 0.00 0.00 33 1011.8
20260506122011 79 164 0.0 0.0 0.00 0.00 0.00 34 1011.0
20260506121512 79 210 0.0 0.0 0.00 0.00 0.00 34 1011.0
20260506121010 79 183 0.0 0.0 0.00 0.00 0.00 34 1011.2
20260506115510 79 208 0.0 0.0 0.00 0.00 0.00 34 1012.0
20260506115009 79 178 0.0 0.0 0.00 0.00 0.00 34 1012.0
20260506114010 79 172 0.0 0.0 0.00 0.00 0.00 35 1012.0
20260506113510 79 150 0.0 0.0 0.00 0.00 0.00 35 1012.0
20260506113009 79 147 0.0 0.0 0.00 0.00 0.00 35 1012.0
20260506112510 79 187 0.0 0.0 0.00 0.00 0.00 35 1012.0
20260506112012 79 180 0.0 0.0 0.00 0.00 0.00 36 1012.0
20260506111508 78 186 0.0 0.0 0.00 0.00 0.00 36 1012.0
20260506111012 78 204 0.0 0.0 0.00 0.00 0.00 36 1012.0
20260506110010 78 212 0.0 0.0 0.00 0.00 0.00 37 1012.0
20260506105508 77 179 0.0 0.0 0.00 0.00 0.00 38 1012.1
20260506104508 77 195 0.0 0.0 0.00 0.00 0.00 38 1013.0
20260506104009 76 160 0.0 0.0 0.00 0.00 0.00 38 1012.9
20260506103510 76 166 0.0 0.0 0.00 0.00 0.00 38 1012.0
20260506103010 76 165 0.0 0.0 0.00 0.00 0.00 39 1012.0
20260506102010 75 171 0.0 0.0 0.00 0.00 0.00 39 1012.0
20260506101509 75 189 0.0 0.0 0.00 0.00 0.00 38 1012.0
20260506101011 75 237 0.0 0.0 0.00 0.00 0.00 38 1012.0
20260506100010 76 198 0.0 0.0 0.00 0.00 0.00 38 1012.0
20260506095509 76 161 0.0 0.0 0.00 0.00 0.00 38 1012.0
20260506095009 76 182 0.0 0.0 0.00 0.00 0.00 39 1012.0
20260506094511 76 255 0.0 0.0 0.00 0.00 0.00 38 1012.0
20260506094011 77 162 0.0 0.0 0.00 0.00 0.00 39 1012.2
20260506093513 77 173 0.0 0.0 0.00 0.00 0.00 39 1013.0
20260506093010 76 173 0.0 0.0 0.00 0.00 0.00 40 1013.0
20260506092511 76 192 0.0 0.0 0.00 0.00 0.00 41 1012.8
20260506090008 75 158 0.0 0.0 0.00 0.00 0.00 41 1012.0